This demonstration page uses our WeatherBlox Daily Observations layout. Learn more.

Left ArrowRight Arrow

Hourly Observations for December 27, 2017

Temp ( °F °C ) Dew Point ( °F °C ) Humidity (%) Winds ( mph kmh ) Pressure ( in mb ) Visibility ( mi km ) Precip ( " mm )
12:15 am 00:15 Cloudy 32 undefined 18 -8 55 55 N 5 7 30.48 1032 10 16 N/A
12:35 am 00:35 Cloudy 32 undefined 18 -8 55 55 N 5 7 30.48 1032 10 16 N/A
12:55 am 00:55 Cloudy 32 undefined 18 -8 55 55 N 5 7 30.48 1032 10 16 N/A
1:15 am 01:15 Cloudy 32 undefined 18 -8 55 55 N 6 9 30.48 1032 10 16 N/A
1:35 am 01:35 Cloudy 32 undefined 19 -7 60 60 NNW 5 7 30.48 1032 10 16 N/A
1:55 am 01:55 Cloudy 32 undefined 19 -7 60 60 N N/A 30.48 1032 10 16 N/A
2:15 am 02:15 Cloudy 32 undefined 19 -7 60 60 N N/A 30.48 1032 10 16 N/A
2:35 am 02:35 Cloudy 32 undefined 19 -7 60 60 N N/A 30.50 1033 10 16 N/A
2:55 am 02:55 Cloudy 32 undefined 19 -7 60 60 N N/A 30.50 1033 10 16 N/A
3:15 am 03:15 Cloudy 32 undefined 19 -7 60 60 N N/A 30.48 1032 10 16 N/A
3:35 am 03:35 Cloudy 32 undefined 19 -7 60 60 N N/A 30.50 1033 10 16 N/A
3:55 am 03:55 Cloudy 32 undefined 21 -6 64 64 N N/A 30.48 1032 10 16 N/A
4:15 am 04:15 Cloudy 32 undefined 19 -7 60 60 N 5 7 30.48 1032 10 16 N/A
4:35 am 04:35 Cloudy 32 undefined 19 -7 60 60 N 6 9 30.48 1032 10 16 N/A
4:55 am 04:55 Cloudy 32 undefined 19 -7 60 60 N 3 6 30.48 1032 10 16 N/A
5:15 am 05:15 Cloudy 32 undefined 19 -7 60 60 NNE 3 6 30.48 1032 10 16 N/A
5:35 am 05:35 Cloudy 32 undefined 19 -7 60 60 N 5 7 30.48 1032 10 16 N/A
5:55 am 05:55 Cloudy 32 undefined 19 -7 60 60 N 6 9 30.50 1033 10 16 N/A
6:15 am 06:15 Cloudy 32 undefined 21 -6 64 64 NNE 6 9 30.50 1033 10 16 N/A
6:35 am 06:35 Cloudy 30 -1 21 -6 69 69 NNE 8 13 30.50 1033 10 16 N/A
6:55 am 06:55 Cloudy 30 -1 21 -6 69 69 NNE 10 17 30.53 1034 10 16 N/A
7:15 am 07:15 Cloudy 28 -2 19 -7 69 69 NNE 6 9 30.53 1034 10 16 N/A
7:35 am 07:35 Cloudy 28 -2 19 -7 69 69 NNE 8 13 30.53 1034 10 16 N/A
7:55 am 07:55 Cloudy 28 -2 19 -7 69 69 NE 7 11 30.53 1034 10 16 N/A
8:15 am 08:15 Cloudy 28 -2 19 -7 69 69 NNE 6 9 30.53 1034 10 16 N/A
8:35 am 08:35 Cloudy 28 -2 19 -7 69 69 NNE 9 15 30.53 1034 10 16 N/A
8:55 am 08:55 Cloudy 28 -2 19 -7 69 69 NNE 10 17 30.53 1034 10 16 N/A
9:15 am 09:15 Cloudy 28 -2 19 -7 69 69 NNE 8 13 30.53 1034 10 16 N/A
9:35 am 09:35 Cloudy 28 -2 19 -7 69 69 NNE 8 13 30.53 1034 10 16 N/A
9:55 am 09:55 Cloudy 28 -2 19 -7 69 69 NNE 7 11 30.53 1034 10 16 N/A
10:15 am 10:15 Cloudy 28 -2 19 -7 69 69 NNE 8 13 30.53 1034 10 16 N/A
10:35 am 10:35 Cloudy with Light Snow 27 -3 18 -8 69 69 N 8 13 30.56 1035 10 16 N/A
10:55 am 10:55 Cloudy 27 -3 18 -8 69 69 NNE 12 19 30.56 1035 10 16 N/A
11:15 am 11:15 Cloudy 28 -2 18 -8 64 64 N 7 11 30.53 1034 10 16 N/A
11:35 am 11:35 Cloudy 28 -2 18 -8 64 64 N 9 15 30.53 1034 10 16 N/A
11:55 am 11:55 Cloudy 28 -2 18 -8 64 64 N 7 11 30.53 1034 10 16 N/A
12:15 pm 12:15 Cloudy 28 -2 18 -8 64 64 N 6 9 30.53 1034 10 16 N/A
12:35 pm 12:35 Cloudy 28 -2 18 -8 64 64 NNE 9 15 30.53 1034 10 16 N/A
12:55 pm 12:55 Cloudy 30 -1 18 -8 59 59 N 9 15 30.53 1034 10 16 N/A
1:15 pm 13:15 Mostly Cloudy 30 -1 16 -9 55 55 N 13 20 30.50 1033 10 16 N/A
1:35 pm 13:35 Cloudy 28 -2 18 -8 64 64 NNW 9 15 30.50 1033 10 16 N/A
1:55 pm 13:55 Cloudy 30 -1 16 -9 55 55 N 14 22 30.50 1033 10 16 N/A
2:15 pm 14:15 Cloudy 28 -2 14 -10 55 55 N 12 19 30.50 1033 10 16 N/A
2:35 pm 14:35 Cloudy 28 -2 14 -10 55 55 N 5 7 30.50 1033 10 16 N/A
2:55 pm 14:55 Cloudy 28 -2 14 -10 55 55 NNW 10 17 30.53 1034 10 16 N/A
3:15 pm 15:15 Cloudy 28 -2 12 -11 51 51 NNW 15 24 30.53 1034 10 16 N/A
3:35 pm 15:35 Cloudy 28 -2 10 -12 47 47 N 13 20 30.53 1034 10 16 N/A
3:55 pm 15:55 Cloudy 28 -2 12 -11 51 51 N 9 15 30.53 1034 10 16 N/A
4:15 pm 16:15 Cloudy 28 -2 10 -12 47 47 NNE 6 9 30.53 1034 10 16 N/A
4:35 pm 16:35 Cloudy 27 -3 9 -13 46 46 N 13 20 30.53 1034 10 16 N/A
4:55 pm 16:55 Cloudy 27 -3 9 -13 46 46 N 12 19 30.53 1034 10 16 N/A
5:15 pm 17:15 Cloudy 27 -3 7 -14 43 43 N 9 15 30.53 1034 10 16 N/A
5:35 pm 17:35 Mostly Cloudy 27 -3 5 -15 39 39 N 8 13 30.53 1034 10 16 N/A
5:55 pm 17:55 Partly Cloudy 25 -4 3 -16 39 39 N 10 17 30.53 1034 10 16 N/A
6:15 pm 18:15 Clear 25 -4 3 -16 39 39 N 16 26 30.59 1036 10 16 N/A
6:35 pm 18:35 Clear 23 -5 3 -16 42 42 N 13 20 30.59 1036 10 16 N/A
6:55 pm 18:55 Clear 23 -5 1 -17 39 39 N 21 33 30.59 1036 10 16 N/A
7:15 pm 19:15 Clear 23 -5 1 -17 39 39 N 13 20 30.59 1036 10 16 N/A
7:35 pm 19:35 Clear 23 -5 1 -17 39 39 N 12 19 30.62 1037 10 16 N/A
7:55 pm 19:55 Clear 21 -6 3 -16 45 45 N 12 19 30.62 1037 10 16 N/A
8:15 pm 20:15 Clear 21 -6 3 -16 45 45 N 12 19 30.62 1037 10 16 N/A
8:35 pm 20:35 Clear 21 -6 3 -16 45 45 N 12 19 30.62 1037 10 16 N/A
8:55 pm 20:55 Clear 21 -6 3 -16 45 45 N 13 20 30.62 1037 10 16 N/A
9:15 pm 21:15 Clear 21 -6 3 -16 45 45 N 14 22 30.62 1037 10 16 N/A
9:35 pm 21:35 Clear 19 -7 3 -16 49 49 N 16 26 30.62 1037 10 16 N/A
9:55 pm 21:55 Clear 19 -7 3 -16 49 49 N 12 19 30.62 1037 10 16 N/A
10:15 pm 22:15 Clear 19 -7 3 -16 49 49 N 10 17 30.65 1038 10 16 N/A
10:35 pm 22:35 Clear 19 -7 3 -16 49 49 NNW 12 19 30.65 1038 10 16 N/A
10:55 pm 22:55 Clear 19 -7 3 -16 49 49 NNW 15 24 30.65 1038 10 16 N/A
11:15 pm 23:15 Clear 19 -7 3 -16 49 49 NNW 12 19 30.65 1038 10 16 N/A
11:35 pm 23:35 Clear 19 -7 3 -16 49 49 N 10 17 30.65 1038 10 16 N/A
11:55 pm 23:55 Clear 19 -7 3 -16 49 49 NNW 15 24 30.65 1038 10 16 N/A

Powered by AerisWeather